Weather History for KMCB - March, 2012

Change the Weather History Date:

Tuesday, March 27, 2012

  Actual Average Record
Temperature  
Mean Temperature 68 °F -  
Max Temperature 82 °F 71 °F 84 °F (1991)
Min Temperature 55 °F 48 °F 24 °F (1955)
Cooling Degree Days 4    
Growing Degree Days 18 (Base 50)    
Moisture  
Dew Point 57 °F    
Average Humidity 71    
Maximum Humidity 97    
Minimum Humidity 39    
Precipitation  
Precipitation 0.00 in - - ()
Sea Level Pressure  
Sea Level Pressure 30.08 in    
Wind  
Wind Speed 2 mph (South)    
Max Wind Speed 8 mph    
Max Gust Speed -    
Visibility 10 miles    
Events      
Averages and records for this station are not official NWS values.
T = Trace of Precipitation, MM = Missing Value Source: NWS Daily Summary

Daily Weather History Graph

Daily Weather History Graph

Search for Another Location

Airport or City:

Trip Planner

Search our weather history database for the weather conditions in past years. The results will help you decide how hot, cold, wet, or windy it might be!

Date:

Astronomy

Mar. 27, 2012 Rise Set
Actual Time 6:56 AM CDT 7:18 PM CDT
Civil Twilight 6:32 AM CDT 7:42 PM CDT
Nautical Twilight 6:03 AM CDT 8:11 PM CDT
Astronomical Twilight 5:34 AM CDT 8:39 PM CDT
Moon 9:45 AM CDT (3/27) No Moon Set
Length of Visible Light 13h 10m
Length of Day
12h 22m
Waxing Crescent, 22% of the Moon is Illuminated
Mar 27
Waxing Crescent
Mar 30
First Quarter
Apr 6
Full
Apr 13
Last Quarter
Apr 21
New

Hourly Weather History & Observations

Time (CDT) Temp. Heat Index Dew Point Humidity Pressure Visibility Wind Dir Wind Speed Gust Speed Precip Events Conditions
12:53 AM 57.9 °F - 57.0 °F 97% 30.04 in 10.0 mi Calm Calm - N/A   Clear
1:53 AM 57.0 °F - 55.9 °F 96% 30.05 in 9.0 mi Calm Calm - N/A   Clear
2:53 AM 57.9 °F - 55.9 °F 93% 30.04 in 10.0 mi Calm Calm - N/A   Clear
3:53 AM 57.0 °F - 55.0 °F 93% 30.04 in 10.0 mi Calm Calm - N/A   Clear
4:53 AM 57.0 °F - 55.0 °F 93% 30.04 in 10.0 mi Calm Calm - N/A   Clear
5:53 AM 55.9 °F - 54.0 °F 93% 30.06 in 9.0 mi Calm Calm - N/A   Clear
6:53 AM 55.9 °F - 54.0 °F 93% 30.07 in 9.0 mi Calm Calm - N/A   Clear
7:53 AM 59.0 °F - 55.9 °F 90% 30.10 in 9.0 mi Calm Calm - N/A   Clear
8:53 AM 66.0 °F - 57.9 °F 75% 30.10 in 10.0 mi Calm Calm - N/A   Clear
9:53 AM 73.0 °F - 59.0 °F 61% 30.13 in 10.0 mi Calm Calm - N/A   Clear
10:53 AM 75.9 °F - 57.9 °F 54% 30.14 in 10.0 mi East 4.6 mph - N/A   Clear
11:53 AM 79.0 °F - 57.0 °F 47% 30.14 in 10.0 mi Variable 6.9 mph - N/A   Clear
12:53 PM 80.1 °F 80.4 °F 57.0 °F 45% 30.12 in 10.0 mi SSE 4.6 mph - N/A   Clear
1:53 PM 82.0 °F 81.7 °F 57.0 °F 42% 30.09 in 10.0 mi Variable 3.5 mph - N/A   Clear
2:53 PM 82.0 °F 81.4 °F 55.0 °F 39% 30.08 in 10.0 mi SW 5.8 mph - N/A   Scattered Clouds
3:53 PM 82.0 °F 81.6 °F 55.9 °F 41% 30.07 in 10.0 mi South 6.9 mph - N/A   Mostly Cloudy
4:53 PM 82.0 °F 81.4 °F 55.0 °F 39% 30.07 in 10.0 mi SSW 8.1 mph - N/A   Clear
5:53 PM 79.0 °F - 57.9 °F 48% 30.06 in 10.0 mi South 6.9 mph - N/A   Clear
6:53 PM 73.0 °F - 57.9 °F 59% 30.07 in 10.0 mi South 3.5 mph - N/A   Clear
7:53 PM 70.0 °F - 59.0 °F 68% 30.08 in 10.0 mi Calm Calm - N/A   Clear
8:53 PM 68.0 °F - 60.1 °F 76% 30.10 in 10.0 mi SSE 3.5 mph - N/A   Clear
9:53 PM 66.9 °F - 61.0 °F 81% 30.11 in 10.0 mi SSE 5.8 mph - N/A   Clear
10:53 PM 64.9 °F - 61.0 °F 87% 30.12 in 10.0 mi SSE 3.5 mph - N/A   Clear
11:53 PM 64.0 °F - 61.0 °F 90% 30.12 in 10.0 mi Calm Calm - N/A   Clear